Location: Fontevrault
(47.1823°N, 0.0493°E)
Time: 03:49:02
(UTC+00:00)

Meteor 1-21 Rocket - Pass Details

Date: 01 November 2021
Orbit: 834 x 907 km, 81.2° (Epoch: 07 December)

Event Time Altitude Azimuth Distance (km) Brightness Sun altitude
Rises 04:16:45 0° 143° (SE) 3,417 7.8 -25.2°
Reaches altitude 10° 04:19:51 10° 126° (SE) 2,499 7.3 -24.7°
Maximum altitude 04:23:38 19° 83° (E) 1,975 7.0 -24.1°
Drops below altitude 10° 04:27:29 10° 41° (NE) 2,545 7.3 -23.4°
Sets 04:30:40 0° 25° (NNE) 3,503 7.8 -22.9°
